pic not found

MONITORING PENGADAAN SECARA ELEKTRONIK

Bagian Pengadaan Barang dan Jasa
Sekretariat Daerah Kabupaten Magetan
Tahun Anggaran2025



MONITORING NON TENDER

Informasi

1. Data Non Tender merupakan Paket Non Tender dengan status "Paket Sudah Selesai" yang diambil dari SPSE .
2. Monitoring Non Tender digunakan untuk memastikan PPK telah menginputkan E-kontrak pada SPSE dan Penilaian Kinerja Penyedia pada SIKaP
3. Status Penilaian Kinerja = "Terisi" jika PPK telah melakukan penilaian kinerja pada aplikasi SIKaP.


Tim LPSE Kabupaten Magetan Last Update    2025-12-22
Showing 1,121-1,140 of 9,716 items.
#Nama SatkerKd NontenderKd RupNama PaketPaguHpsNilai KontrakSumber DanaTanggal Selesai NontenderNama PenyediaStatus Penilaian Kinerja
 
1121DINAS PEKERJAAN UMUM DAN PENATAAN RUANG1004925530432960Rehabilitasi Jalan Tamanarum - Lembeyan, Ds. Pragak RT. 08 RW.0385,000,00084,970,00084,230,000APBDP2021-12-03 15:30:00CV PATHAP(not set)
1122DINAS PEKERJAAN UMUM DAN PENATAAN RUANG1004625530432908Rehabilitasi Jalan Mojopurno - Genengan144,000,000143,980,000142,500,000APBDP2021-12-03 15:30:00cv.wanita satria(not set)
1123DINAS PEKERJAAN UMUM DAN PENATAAN RUANG1004425530432845Rehabilitasi Jalan Kentangan - Bogem (Alternatif Jembatan Bogem)170,000,000169,950,000168,120,000APBDP2021-12-03 15:30:00CV. SARI MUSTIKA AJI(not set)
1124DINAS PEKERJAAN UMUM DAN PENATAAN RUANG1004825530432940Rehabilitasi Jalan Pupus - Tapen144,000,000143,990,000142,850,000APBDP2021-12-03 15:30:00CV.BERSAMA BERKARYA(not set)
1125SEKRETARIAT DAERAH979125530125640Belanja AC Split dan Smart TV199,248,550113,960,0000APBDP2021-12-03 15:30:00CV. AGYA BERSAMA(not set)
1126DINAS PEKERJAAN UMUM DAN PENATAAN RUANG1004525530432868Rehabilitasi Jembatan Nglopang168,000,000167,980,000167,180,000APBDP2021-12-03 15:30:00CV. NUSANTARA(not set)
1127DINAS PEKERJAAN UMUM DAN PENATAAN RUANG1007025530648571Peningkatan Jalan Nguntoronadi - Simbatan120,000,000119,980,000116,820,000APBDP2021-12-06 15:30:00CV CAROKO KONTRAKTOR(not set)
1128DINAS PEKERJAAN UMUM DAN PENATAAN RUANG1005325530433210Penyemiran Ruas Jalan Kabupaten Pingkuk - Tanjung100,000,00099,950,00099,630,000APBDP2021-12-06 15:30:00cv. setia karya(not set)
1129DINAS PEKERJAAN UMUM DAN PENATAAN RUANG1007625530648331Supervisi/ Pengawasan Peningkatan Jalan Paket 111,000,0009,724,00094,700,000APBDP2021-12-06 15:30:00CV. RANCANG BANGUN(not set)
1130DINAS PEKERJAAN UMUM DAN PENATAAN RUANG1007525530465045Supervisi/ Pengawasan Rehabilitasi Jalan Jalan Paket 1315,500,00015,268,00014,500,000APBDP2021-12-06 15:30:00GLOBAL MANDIRI KONSULTAN(not set)
1131DINAS PEKERJAAN UMUM DAN PENATAAN RUANG1005425530433219Rehabilitasi Jalan Bendo - Maospati144,000,000143,990,000142,590,000APBDP2021-12-06 15:30:00CV. BINTANG BARU(not set)
1132DINAS PEKERJAAN UMUM DAN PENATAAN RUANG1005525530433230Rehabilitasi Jalan SMAN Sukomoro-Kedungguwo144,000,000143,980,000142,660,000APBDP2021-12-06 15:30:00CV. Karya Mandiri(not set)
1133DINAS PEKERJAAN UMUM DAN PENATAAN RUANG1007125530648619Peningkatan Jalan Tulung - Kenongomulya144,000,000143,900,000142,120,000APBDP2021-12-06 15:30:00CV. PRIMA JASA(not set)
1134DINAS KESEHATAN1011925530724818Belanja Jasa Pengelolaan Sampah199,900,000190,000,000190,000,000APBDP2021-12-06 23:59:00PT ANAK LANANG TIGA PERKASA(not set)
1135DINAS TENAGA KERJA1011225530546971Belanja jasa konsultansi ISO40,000,00039,875,00037,950,000APBDP2021-12-07 11:00:00CV. Mapah Karya Natar(not set)
1136DINAS KESEHATAN1011825530739587Belanja Obat obatan pelayanan kefarmasian169,590,700165,784,322165,374,000APBD2021-12-07 14:59:00PT. DAYAANUGERAH DEWATASAKTI(not set)
1137DINAS KESEHATAN1011725530739505Belanja Obat obatan DBHCHT181,580,000169,200,900168,773,000APBD2021-12-07 14:59:00PT. BUANA MAHKOTA SANTOSA(not set)
1138DINAS KESEHATAN1010325530663111Belanja cetak spanduk print digital36,556,75022,883,57522,645,700APBDP2021-12-07 14:59:00CV Adameka(not set)
1139DINAS KESEHATAN1010025530670748Belanja Pemeliharaan Alat Kesehatan41,000,00040,596,16040,519,160APBDP2021-12-07 14:59:00PT. Rajawali Nusindo(not set)
1140DINAS KESEHATAN1009225530670853Belanja Jasa kalibrasi Alat Kesehatan (DAK)-HEMATOLOGY ANALYZER SYSMEX75,000,00021,477,50021,311,730APBDP2021-12-07 14:59:00PT. SABA INDOMEDIKA(not set)

MONITORING TENDER

Informasi

1. Data Tender merupakan Paket Tender dengan status "Paket Sudah Selesai" yang diambil dari SPSE .
2. Monitoring Tender digunakan untuk memastikan PPK telah menginputkan E-kontrak pada SPSE dan Penilaian Kinerja Penyedia pada SIKaP
3. Status Penilaian Kinerja = "Terisi" jika PPK telah melakukan penilaian kinerja pada aplikasi SIKaP.


Tim LPSE Kabupaten Magetan Last Update    2025-12-22
Showing 1-20 of 89 items.
#Kd TenderTahun AnggaranNama SatkerKd RupNama PaketPaguHpsSumber DanaNilai KontrakNama PenyediaTgl Penetapan PemenangStatus Penilaian Kinerja
1100868530002025DINAS PEKERJAAN UMUM DAN PENATAAN RUANG54689775Pembangunan Embung Sidowayah650000000649141000APBD619648601WIJAYA KARYA SEJATI2025-10-10 17:00:00(not set)
2100868510002025DINAS PEKERJAAN UMUM DAN PENATAAN RUANG54689777Pembangunan Embung Kawedanan, Terung500000000497008000APBD472778577CV. Surya Galaxy2025-10-10 17:00:00(not set)
3100850540002025DINAS PEKERJAAN UMUM DAN PENATAAN RUANG60291185Pemeliharaan Berkala Jalan Tebon-Stasiun Magetan13150000001307940000APBDP(not set)(not set)2025-10-03 11:30:00(not set)
4100815940002025DINAS PEKERJAAN UMUM DAN PENATAAN RUANG60296716Pembangunan Sumur Air Tanah Dalam SDKMG Desa Tladan dan Desa Botok, Beserta Peralatan dan Pemasangan Pompa13000000001300000000APBD1268000000CV. BUDI LUHUR2025-10-01 14:00:00(not set)
5100804910002025DINAS PEKERJAAN UMUM DAN PENATAAN RUANG60296695Pembangunan Sumur Air Tanah Dalam SDKMG Desa Tapen dan Desa Tambakmas, Beserta Peralatan dan Pemasangan Pompa11000000001100000000APBD1075000000CV. ROHMAT2025-10-01 14:00:00(not set)
6100800490002025DINAS PEKERJAAN UMUM DAN PENATAAN RUANG60461662Rehabilitasi Jaringan Irigasi DI Sadon560100000555348000APBD444278400PURWOTO2025-09-29 16:00:00(not set)
7100233980002025DINAS KESEHATAN54938336Jasa Konsultansi Pengawasan Pembangunan Gedung Rumah Sakit (Puskesmas Panekan)300000000299977500APBD240481500PT. PILAREMPAT CONSULTAN2025-05-28 16:00:00(not set)
8120832552024DINAS PENDIDIKAN, KEPEMUDAAN DAN OLAHRAGA47581846Jasa Konsultansi Pengawasan Pembangunan Sirkuit Kabupaten Magetan350157300349999983APBD317922038PT. SKALA PILAR LIMA2024-07-30 15:30:00(not set)
9120822552024BADAN PERENCANAAN PEMBANGUNAN, PENELITIAN DAN PENGEMBANGAN DAERAH51431929Jasa Konsultansi Mitigasi Perubahan Iklim Melalui Identifikasi Karbon200000000198168300APBD166722000PT TOTAL CIPTA PERSADA2024-07-25 16:00:00(not set)
10109922552023DINAS PEKERJAAN UMUM DAN PENATAAN RUANG44138092Pemeliharaan Berkala Jalan Genengan - Takeran18000000001791317000APBD(not set)(not set)2023-11-10 14:30:00(not set)
11109842552023KECAMATAN MAOSPATI40341941BELANJA MODAL BANGUNAN GEDUNG TEMPAT KERJA LAINNYA PEMBANGUNAN LANJUTAN GEDUNG KEBUDAYAAN240000000237931000APBD190344800CV. VAMROZ BINTANG PRATAMA2023-10-11 14:30:00(not set)
12109512552023DINAS KESEHATAN43956365Pembangunan Puskesmas Pembantu Ngelang600000000447418000APBD357934400SALSA MANDIRI2023-09-22 16:30:00(not set)
13109722552023DINAS PENDIDIKAN, KEPEMUDAAN DAN OLAHRAGA43870656Jasa Konsultansi Perencanaan dan Penyusunan Masterplan Pembangunan Sirkuit Kabupaten Magetan800000000776178600APBD776056500CV. CIPTA PURNAMA MANDIRI2023-09-21 19:00:00(not set)
14108652552023DINAS PENDIDIKAN, KEPEMUDAAN DAN OLAHRAGA42710723Rehabilitasi Ruang Kelas SMPN 1 Kawedanan546000000543734000APBD434987200ESTETIKA CV2023-09-15 15:00:00(not set)
15108662552023DINAS PENDIDIKAN, KEPEMUDAAN DAN OLAHRAGA42708925Rehabilitasi Ruang Kelas SMPN 1 Nguntoronadi700000000697732000APBD558185600CV.DEA KONTRAKTOR2023-09-15 15:00:00(not set)
16108672552023DINAS PENDIDIKAN, KEPEMUDAAN DAN OLAHRAGA42710780Rehabilitasi Ruang Kelas SMPN 1 Plaosan500000000499724000APBD399779200ESTETIKA CV2023-09-08 15:00:00(not set)
17108682552023DINAS PENDIDIKAN, KEPEMUDAAN DAN OLAHRAGA42710943Rehabilitasi Ruang Kelas SMPN 4 Magetan700000000698736000APBD558988800CV. Jalu Mampang2023-09-08 15:00:00(not set)
18109702552023DINAS PETERNAKAN DAN PERIKANAN40159675Pembangunan Konstruksi KSL Lanjutan1100000000904700000APBD741379925CV KRISNA DWI KARYA2023-08-29 17:00:00(not set)
19109502552023DINAS PEKERJAAN UMUM DAN PENATAAN RUANG43049995Pembangunan Plaza Ndoyo12500000001249640000APBD1083394356CV. BUDI LUHUR2023-08-23 15:15:00(not set)
20109622552023DINAS PEKERJAAN UMUM DAN PENATAAN RUANG39676632Rehabilitasi Jalan Karas-Kuwon452000000445467000APBD356373600SALSA MANDIRI2023-08-15 16:30:00(not set)